YAMAL 402

Last updated on Sun Apr 12 2026 00:02:53 GMT+0000 (Coordinated Universal Time)

1 39022U 12070A 26101.74546285 .00000089 00000+0 00000+0 0 9992 2 39022 1.0925 84.9575 0003973 294.9887 143.2802 1.00271260 48733
UTC large
Height (km)
Speed (km/s)
/
Latitude / Longitude
Inclination (degrees)
Orbital Period (minutes)
Azimuth
Elevation
Range (km)
Doppler Factor

Next 0 passes for location: London (51.5072 / 0.1276)

Sorry there are no passes over London.
YAMAL 402